User: anonymous   Login
Location: Home
(42.5358°N, 72.7383°W)
Time: 00:44:20
(UTC-05:00)
Language:

QB50P2 - Orbit

View from above orbital plane
View from above orbital plane
View from above satellite
View from above satellite

Ground track
Ground track

The orbit data is extracted from the following two-line orbital elements,

1 40032U 14033Y   22027.55264298  .00000920  00000-0  10302-3 0  9994
2 40032  97.9305 319.9189 0012218 152.3534 207.8335 14.89280985412640
Epoch (UTC): 27 January 2022 13:15:48
Eccentricity: 0.0012218
inclination: 97.9305°
perigee height: 591 km
apogee height: 609 km
right ascension of ascending node: 319.9189°
argument of perigee: 152.3534°
revolutions per day: 14.89280985
mean anomaly at epoch: 207.8335°
orbit number at epoch: 41264

The dashed part of the orbit path shows where the satellite is in the earth's shadow,  

DLR